Dewpoint
57 55 55 54 54 53 51 50 47 45 43 42 41 40 40 41 43 48 52 58 60 58 57 57 58 59 59 59 59 59 58 58 58 58 58 58 58 58 58 58 59 59 59
57 56 56 56 55 53 52 50 48 48 46 46 44 43 42 41 41 43 47 53 59 59 58 58 57 57 56 57 57 56 56 56 56 54 54 53 53 53 54 54 55 56 56
55 56 57 56 56 56 53 51 50 50 49 47 47 47 46 43 43 42 45 49 52 56 53 53 53 52 52 53 53 54 53 52 51 51 51 52 52 53 53 53 53 53 53
55 55 56 56 56 55 53 51 50 50 50 49 47 46 45 42 41 42 45 47 49 48 47 49 49 50 50 50 50 50 50 50 50 51 52 52 53 53 53 53 53 53 53
55 55 56 56 56 54 53 51 52 51 51 49 46 46 46 44 43 44 45 44 44 46 41 48 48 48 46 46 47 49 50 50 50 51 51 51 52 52 52 52 52 52 52
55 55 56 56 54 54 52 52 52 51 50 45 41 44 46 46 47 46 43 40 39 41 36 40 44 44 42 41 44 47 49 49 49 50 50 50 51 51 51 52 52 52 52
56 56 56 55 55 53 53 52 52 51 50 47 47 47 46 45 45 47 46 45 39 38 35 38 36 37 35 37 40 43 46 48 48 49 49 49 50 50 51 51 51 51 51
57 56 56 55 55 54 52 52 52 50 49 50 49 48 44 44 46 45 47 44 34 37 36 36 34 33 34 32 36 39 44 46 47 48 48 49 49 50 50 50 50 50 50
56 56 56 56 56 54 53 53 52 51 50 49 49 49 45 44 45 47 47 46 34 33 32 36 33 33 30 31 34 36 41 43 46 47 48 48 49 49 49 49 49 49 49
56 56 57 57 56 54 53 52 51 51 52 48 46 43 46 45 41 42 45 45 37 29 31 35 35 34 32 33 36 38 39 42 44 46 47 48 48 49 49 48 48 48 47
57 57 57 57 55 54 54 52 52 50 50 49 46 45 44 42 39 38 36 38 33 31 32 33 33 34 33 32 32 35 39 41 42 44 46 48 48 48 48 47 47 47 46
57 57 56 56 55 54 54 53 52 49 47 46 46 45 42 40 36 35 32 31 29 31 30 32 34 35 34 33 32 38 37 38 40 43 46 47 46 45 46 46 46 46 45
56 56 56 56 55 54 53 51 50 48 46 43 41 37 36 34 33 32 31 28 28 28 30 29 33 33 29 31 31 38 36 36 38 42 44 44 43 43 43 44 45 45 45
56 56 56 56 54 53 51 50 48 46 44 42 39 37 36 35 35 34 32 31 28 26 27 30 30 32 30 30 33 37 31 34 37 38 40 41 40 40 41 42 43 44 44
55 56 56 55 53 51 49 46 43 39 39 39 38 37 35 35 36 36 34 34 31 27 25 29 27 30 30 29 33 30 30 34 35 36 37 37 37 38 39 40 41 41 42
56 55 55 54 51 48 46 41 37 35 35 37 36 34 34 35 35 36 36 34 33 31 27 27 27 28 28 27 31 30 30 35 33 34 35 35 36 37 38 40 40 40 41
56 54 53 50 47 43 39 36 34 33 33 33 34 35 33 33 33 33 35 33 33 33 30 28 28 28 29 29 29 30 30 28 28 33 34 35 36 36 38 39 39 39 41
55 53 51 48 44 39 35 31 30 31 31 32 32 34 31 26 30 31 32 31 31 31 30 27 28 29 29 29 29 28 27 25 28 31 34 34 35 36 38 38 38 39 41
53 51 48 43 38 35 31 30 29 30 30 30 32 30 28 27 27 29 30 30 29 25 30 30 28 29 29 28 28 28 27 29 28 33 32 33 35 36 37 37 38 38 41
50 44 41 38 35 32 30 29 29 29 30 30 31 29 27 27 29 29 26 28 27 30 30 29 28 28 28 29 29 28 28 30 30 29 31 32 34 35 36 36 37 39 42
42 39 37 35 32 29 28 30 29 30 29 29 30 29 32 31 30 29 25 29 30 30 30 29 27 27 27 27 27 29 28 29 29 30 30 31 31 32 33 35 35 40 43
37 35 34 32 31 27 36 34 32 29 28 27 27 29 29 29 26 27 29 29 30 29 28 27 27 26 26 27 28 28 29 28 26 31 30 30 31 31 32 33 37 41 42
36 35 33 31 31 33 36 34 32 27 27 27 28 27 23 22 27 27 30 30 31 29 29 29 28 27 27 28 29 28 28 27 29 30 31 29 32 31 31 32 37 40 41
36 35 35 34 35 36 37 35 32 28 28 29 29 25 24 25 30 29 29 29 28 27 28 27 29 29 29 30 28 28 29 30 29 30 29 27 30 30 31 33 36 38 40
37 36 36 36 35 36 36 34 29 27 26 26 26 25 24 25 29 28 29 29 26 27 27 28 29 30 30 30 29 28 26 25 24 26 31 29 28 29 30 32 35 38 39
36 36 35 36 37 36 36 34 29 26 25 24 24 25 27 27 27 27 28 26 26 28 28 28 28 29 29 28 29 28 27 27 26 25 29 29 28 29 27 31 31 35 35
Lifted_Index
1 2 2 2 2 3 4 5 5 6 7 7 8 8 9 9 9 8 8 7 6 6 6 6 6 6 6 6 6 6 6 6 7 7 7 7 7 7 7 6 6 6 5
2 2 2 2 2 3 4 5 5 6 6 7 7 8 8 9 9 9 8 8 7 7 7 8 8 8 8 8 8 8 8 8 8 9 9 9 8 8 8 8 7 7 7
2 2 2 2 2 3 4 4 5 6 6 6 7 7 8 9 10 10 9 9 9 9 10 10 11 11 10 10 10 10 10 11 11 11 11 10 10 10 9 9 9 9 9
2 2 2 2 2 3 4 4 5 5 5 6 7 8 8 9 10 10 9 9 10 10 12 13 13 13 13 13 13 13 13 13 12 12 12 11 11 10 10 10 10 10 10
2 2 2 2 3 3 4 4 5 5 5 6 7 8 9 9 9 10 10 10 11 12 13 14 15 15 15 16 15 15 14 14 13 13 12 12 12 11 11 11 11 11 11
2 2 2 2 3 3 4 4 5 5 6 7 8 8 9 9 9 9 10 11 12 14 15 15 16 16 17 17 17 16 15 15 14 14 13 13 13 12 12 11 11 11 11
2 2 2 2 3 3 4 4 5 5 6 7 7 8 9 9 9 9 10 11 12 14 16 16 17 17 18 18 18 18 17 16 15 15 14 14 13 13 12 12 12 12 12
2 2 2 2 3 3 4 4 5 6 6 7 7 7 8 8 9 9 9 11 13 15 16 16 17 18 18 19 19 19 18 17 16 15 15 14 14 13 13 12 12 12 12
2 2 2 3 3 4 4 5 5 6 7 7 8 7 8 8 9 9 9 11 13 15 16 16 17 18 19 19 19 20 19 18 17 16 15 14 14 13 13 13 12 12 12
2 3 3 3 3 4 5 5 6 6 7 8 9 9 9 9 10 10 10 11 13 14 15 16 17 18 19 19 20 20 19 19 18 17 16 15 14 14 13 13 12 12 12
2 3 3 3 3 4 5 6 7 7 8 9 10 10 11 11 11 10 10 11 12 14 15 16 17 18 19 19 20 20 19 19 18 17 16 15 15 14 14 13 13 12 11
2 3 3 3 3 4 5 6 7 8 9 10 11 11 11 11 11 11 10 10 11 12 14 16 17 18 19 19 20 20 20 19 19 18 16 15 15 15 15 14 13 12 12
2 2 3 3 3 4 5 5 7 8 10 11 11 12 12 12 12 11 11 10 10 11 13 15 17 18 19 20 20 20 20 20 19 18 17 16 16 16 15 14 13 12 12
2 2 2 3 3 3 4 5 6 7 8 10 11 12 12 13 13 13 12 11 10 10 11 13 16 18 19 20 20 20 20 20 19 18 18 17 17 16 15 14 13 12 12
2 2 2 2 3 3 4 5 5 6 7 8 10 11 13 14 14 14 14 13 11 10 10 12 15 18 20 20 20 20 20 20 19 19 18 18 17 16 15 14 13 13 13
1 1 1 2 2 3 3 4 5 5 6 7 9 11 13 14 15 15 15 14 13 11 10 12 15 18 20 20 20 20 20 19 19 19 18 17 16 16 15 14 14 13 13
0 0 1 1 2 3 3 4 4 5 5 6 8 10 12 14 15 15 15 15 14 13 12 13 16 18 19 19 19 19 19 19 19 18 17 17 16 15 15 14 14 13 13
-0 -0 0 1 2 2 3 3 4 4 5 6 8 9 12 14 15 15 15 15 15 15 14 14 16 18 18 18 19 19 19 19 18 18 17 16 16 15 15 14 14 13 13
-0 -0 1 1 2 2 2 3 4 4 5 7 10 11 13 15 15 15 15 16 16 17 17 16 17 18 18 19 19 19 19 18 18 17 17 16 16 16 15 15 14 13 12
-0 0 1 1 1 1 2 3 3 5 7 10 12 14 15 16 16 16 16 17 17 18 18 18 17 17 18 18 18 18 18 18 17 17 17 16 16 16 16 15 14 11 9
-0 -0 0 1 1 1 2 2 4 5 8 11 12 14 16 17 17 17 17 18 18 18 18 17 17 17 17 18 18 18 18 18 17 17 16 16 16 16 16 15 13 10 7
-0 -0 -0 0 1 1 2 3 5 8 10 11 13 14 16 17 17 18 18 19 19 19 18 18 17 17 17 18 19 19 18 17 17 17 16 16 15 15 15 14 12 8 6
-1 -1 -1 -0 0 1 2 4 8 11 12 13 14 15 16 17 18 18 19 19 20 20 19 19 18 18 18 19 19 19 18 17 16 16 16 15 15 15 14 13 10 7 6
-1 -1 -1 -0 0 2 3 7 10 12 13 15 15 16 17 17 18 19 19 19 19 20 20 20 20 19 19 19 19 18 17 16 15 15 15 14 14 14 13 10 8 6 6
-1 -0 0 1 2 4 6 9 11 12 13 15 16 18 18 19 19 19 19 19 19 19 20 20 20 20 20 19 18 17 16 15 14 14 14 14 14 12 10 8 7 6 6
-0 -0 0 2 3 5 9 11 11 11 12 15 17 18 19 19 19 20 19 19 18 19 19 20 20 20 20 19 18 17 16 15 14 14 14 14 13 11 8 7 6 6 6